Weather in Sant Feliu de Guixols

Spain     41°46′49″N   3°01′37″E
temp.,
°C
wind,
m/s
gust,
m/s
humid.,
%
clouds,
%
prec.,
mm/h
press.,
hPa
HPBL,
m
23 october, sat
sat2323:00+14n5968100 0.0 1020296
02:00+13n457721 0.0 1020192
05:00+12n3477100 0.0 1020104
08:00+11nnw337585 0.0 102093
11:00+16nne344975 0.0 1022401
14:00+20ne453592 0.0 10211089
17:00+17nne4543100 0.0 1021617
20:00+13nnw355344 0.0 1022220
24 october, sun
sun2423:00+12nnw45550 0.0 1023120
02:00+12nnw34550 0.0 102399
05:00+12nnw44550 0.0 102299
08:00+12nnw445710 0.0 102390
11:00+17n465617 0.0 1023384
14:00+19nne666764 0.0 1023784
17:00+17nne567737 0.1 1022555
20:00+15n358947 0.1 1022193
25 october, mon
mon2523:00+14nnw349352 0.0 1023117
02:00+14n33920 0.0 102279
05:00+13n33911 0.0 102282
08:00+13nnw33911 0.0 102286
11:00+17n23750 0.0 1022364
14:00+20e336542 0.0 1021879
17:00+18ese337723 0.0 1020437
20:00+15ne118672 0.0 1022113
26 october, tue
tue2623:00+14nw229083 0.0 102259
02:00+14nw22897 0.0 102254
05:00+14nw22860 0.0 102149
08:00+13nnw22830 0.0 102257
11:00+18nw12600 0.0 1022276
14:00+21s23440 0.0 10211113
17:00+19s22553 0.0 1020356
20:00+16ssw1170100 0.0 102151
27 october, wed
wed2723:00+15nw227370 0.0 102243
02:00+14nne22690 0.0 102149
05:00+13nnw22741 0.0 102163
08:00+13n337638 0.0 102196
11:00+16nne4659100 0.0 1022628
14:00+19ne554949 0.0 1022988
17:00+17ene555349 0.0 1021691
20:00+13ne23750 0.0 1022201